Change the Weather History Date:

Saturday, March 16, 2013

  Actual Average Record
Temperature  
Mean Temperature 28 °F -  
Max Temperature 35 °F 53 °F - ()
Min Temperature 21 °F 36 °F - ()
Degree Days  
Heating Degree Days 37    
Moisture  
Dew Point 14 °F    
Average Humidity 60    
Maximum Humidity 80    
Minimum Humidity 21    
Precipitation  
Precipitation 0.00 in 0.04 in - ()
Sea Level Pressure  
Sea Level Pressure 30.07 in    
Wind  
Wind Speed 8 mph ()    
Max Wind Speed 12 mph    
Max Gust Speed -    
Visibility 6.8 miles    
Events      
T = Trace of Precipitation, MM = Missing Value Source: Averaged Metar Reports

Daily Weather History Graph

Daily Weather History Graph

Search for Another Location

Airport or City:

Trip Planner

Search our weather history database for the weather conditions in past years. The results will help you decide how hot, cold, wet, or windy it might be!

Date:

Astronomy

Mar. 16, 2013 Rise Set
Actual Time 6:04 AM CET 5:59 PM CET
Civil Twilight 5:32 AM CET 6:31 PM CET
Nautical Twilight 4:55 AM CET 7:08 PM CET
Astronomical Twilight 4:17 AM CET 7:46 PM CET
Moon 7:56 AM CET (3/16) 11:20 PM CET (3/16)
Length of Visible Light 12h 58m
Length of Day
11h 55m
Waxing Crescent, 21% of the Moon is Illuminated
Mar 16
Waxing Crescent
Mar 19
First Quarter
Mar 27
Full
Apr 3
Last Quarter
Apr 10
New

Hourly Weather History & Observations

Time (CET) Temp. Windchill Dew Point Humidity Pressure Visibility Wind Dir Wind Speed Gust Speed Precip Events Conditions
12:00 AM 24.8 °F 16.9 °F 15.8 °F 69% 30.01 in - NW 6.9 mph - N/A   Clear
12:30 AM 24.8 °F 16.9 °F 15.8 °F 69% 30.01 in - NW 6.9 mph - N/A   Clear
1:00 AM 24 °F - 14 °F 55% 30.08 in 12 mi WNW 11.2 mph - -   Scattered Clouds
1:00 AM 23.0 °F 13.9 °F 15.8 °F 74% 30.01 in - NW 8.1 mph - N/A   Clear
1:30 AM 23.0 °F 13.1 °F 15.8 °F 74% 30.01 in - NW 9.2 mph - N/A   Clear
2:00 AM 23.0 °F 13.1 °F 15.8 °F 74% 30.01 in - NW 9.2 mph - N/A   Clear
2:30 AM 21.2 °F 10.9 °F 15.8 °F 80% 30.01 in - NW 9.2 mph - N/A   Clear
3:00 AM 23.0 °F 12.4 °F 15.8 °F 74% 30.01 in - NW 10.4 mph - N/A   Clear
3:30 AM 21.2 °F 10.9 °F 15.8 °F 80% 30.01 in - NW 9.2 mph - N/A   Clear
4:00 AM 23.0 °F 11.7 °F 15.8 °F 74% 30.04 in - NW 11.5 mph - N/A   Clear
4:30 AM 21.2 °F 9.5 °F 15.8 °F 80% 30.04 in - NW 11.5 mph - N/A   Clear
5:00 AM 21.2 °F 9.5 °F 15.8 °F 80% 30.04 in - NW 11.5 mph - N/A   Clear
5:30 AM 21.2 °F 9.5 °F 15.8 °F 80% 30.04 in - NW 11.5 mph - N/A   Clear
6:00 AM 21.2 °F 10.1 °F 15.8 °F 80% 30.06 in - NW 10.4 mph - N/A   Clear
6:30 AM 21.2 °F 10.1 °F 15.8 °F 80% 30.06 in 5.0 mi NW 10.4 mph - N/A   Unknown
7:00 AM 22 °F - 15 °F 64% 30.16 in 5 mi NW 11.2 mph - -   Mist
7:00 AM 21.2 °F 9.5 °F 15.8 °F 80% 30.06 in 5.0 mi NW 11.5 mph - N/A   Unknown
7:30 AM 23.0 °F 13.1 °F 15.8 °F 74% 30.09 in 5.0 mi NW 9.2 mph - N/A   Unknown
8:00 AM 23.0 °F 13.9 °F 17.6 °F 80% 30.09 in 5.6 mi NW 8.1 mph - N/A   Unknown
8:30 AM 24.8 °F 14.6 °F 17.6 °F 74% 30.09 in 5.6 mi NW 10.4 mph - N/A   Unknown
9:00 AM 26.6 °F 18.2 °F 17.6 °F 69% 30.09 in 6.2 mi NW 8.1 mph - N/A   Partly Cloudy
9:30 AM 28.4 °F 20.4 °F 17.6 °F 64% 30.12 in 6.2 mi North 8.1 mph - N/A   Partly Cloudy
10:00 AM 30.2 °F 22.6 °F 17.6 °F 60% 30.12 in 6.2 mi NNW 8.1 mph - N/A   Partly Cloudy
10:30 AM 32.0 °F 23.6 °F 14.0 °F 48% 30.12 in 6.2 mi North 10.4 mph - N/A   Scattered Clouds
11:00 AM 30.2 °F 20.8 °F 14.0 °F 51% 30.09 in 6.2 mi North 11.5 mph - N/A   Scattered Clouds
11:30 AM 30.2 °F 21.3 °F 14.0 °F 51% 30.09 in 6.2 mi North 10.4 mph - N/A   Mostly Cloudy
12:00 PM 33.8 °F 27.0 °F 10.4 °F 38% 30.09 in 6.2 mi NW 8.1 mph - N/A   Mostly Cloudy
12:30 PM 33.8 °F 26.4 °F 10.4 °F 38% 30.09 in 6.2 mi NW 9.2 mph - N/A   Mostly Cloudy
1:00 PM 34 °F - 9 °F 21% 30.15 in 12 mi WNW 6.7 mph - -   Partly Cloudy
1:00 PM 33.8 °F 27.0 °F 8.6 °F 35% 30.09 in - WNW 8.1 mph - N/A   Clear
1:30 PM 33.8 °F 25.8 °F 8.6 °F 35% 30.09 in - North 10.4 mph - N/A   Clear
2:00 PM 33.8 °F 28.6 °F 8.6 °F 35% 30.06 in - WNW 5.8 mph - N/A   Clear
2:30 PM 33.8 °F 27.0 °F 8.6 °F 35% 30.06 in - WNW 8.1 mph - N/A   Clear
3:00 PM 33.8 °F 26.4 °F 6.8 °F 32% 30.06 in 6.2 mi NNW 9.2 mph - N/A   Partly Cloudy
3:30 PM 33.8 °F 28.6 °F 8.6 °F 35% 30.06 in - West 5.8 mph - N/A   Clear
4:00 PM 33.8 °F 26.4 °F 6.8 °F 32% 30.06 in - East 9.2 mph - N/A   Clear
4:30 PM 33.8 °F 27.0 °F 8.6 °F 35% 30.06 in - East 8.1 mph - N/A   Clear
5:00 PM 33.8 °F 27.0 °F 10.4 °F 38% 30.06 in - East 8.1 mph - N/A   Clear
5:30 PM 32.0 °F 25.6 °F 14.0 °F 48% 30.06 in - East 6.9 mph - N/A   Clear
6:00 PM 30.2 °F 21.9 °F 14.0 °F 51% 30.06 in - ENE 9.2 mph - N/A   Clear
6:30 PM 28.4 °F 20.4 °F 15.8 °F 59% 30.06 in - East 8.1 mph - N/A   Clear
7:00 PM 28 °F - 14 °F 41% 30.15 in 12 mi ENE 6.7 mph - -   Scattered Clouds
7:00 PM 26.6 °F 19.1 °F 15.8 °F 64% 30.09 in - ENE 6.9 mph - N/A   Clear
7:30 PM 26.6 °F 18.2 °F 15.8 °F 64% 30.09 in - ENE 8.1 mph - N/A   Clear
8:00 PM 24.8 °F 16.1 °F 15.8 °F 69% 30.09 in - ENE 8.1 mph - N/A   Clear
8:30 PM 23.0 °F 14.7 °F 14.0 °F 68% 30.09 in - East 6.9 mph - N/A   Clear
9:00 PM 23.0 °F 15.8 °F 15.8 °F 74% 30.09 in - East 5.8 mph - N/A   Clear
9:30 PM 23.0 °F 14.7 °F 14.0 °F 68% 30.09 in - East 6.9 mph - N/A   Clear
10:00 PM 23.0 °F 13.1 °F 14.0 °F 68% 30.09 in - ENE 9.2 mph - N/A   Clear
10:30 PM 24.8 °F 16.1 °F 14.0 °F 64% 30.09 in - ENE 8.1 mph - N/A   Clear
11:00 PM 21.2 °F 10.9 °F 12.2 °F 68% 30.09 in - ENE 9.2 mph - N/A   Clear
11:30 PM 21.2 °F 12.6 °F 12.2 °F 68% 30.06 in - East 6.9 mph - N/A   Clear